K4TH Weather Reports


time (UTC)temp
C
wind
direction
speed
KPH
gust
KPH
rain 1hr
cm
rain 24hr
cm
rain mn
cm
humidity
%
barometer
mb
20260505011856 19 46 0.0 0.0 0.00 0.00 0.00 69 1012.7
20260505011353 19 46 0.0 0.0 0.00 0.00 0.00 68 1012.6
20260505010849 20 46 0.0 0.0 0.00 0.00 0.00 68 1012.6
20260505010345 20 46 0.0 0.0 0.00 0.00 0.00 67 1012.7
20260505005841 20 46 0.0 0.0 0.00 0.00 0.00 65 1012.8
20260505005338 20 46 0.0 0.0 0.00 0.00 0.00 66 1012.6
20260505004836 20 46 0.0 0.0 0.00 0.00 0.00 64 1012.6
20260505004332 21 46 0.0 0.0 0.00 0.00 0.00 64 1012.5
20260505003830 21 46 0.0 0.0 0.00 0.00 0.00 62 1012.4
20260505003327 22 47 0.0 0.0 0.00 0.00 0.00 60 1012.4
20260505002822 22 47 0.0 1.6 0.00 0.00 0.00 54 1012.4
20260505002320 22 47 0.0 1.6 0.00 0.00 0.00 53 1012.4
20260505001818 22 47 0.0 1.6 0.00 0.00 0.00 55 1012.3
20260505001314 22 47 0.0 0.0 0.00 0.00 0.00 58 1012.2
20260505000812 23 47 0.0 0.0 0.00 0.00 0.00 52 1012.4
20260505000310 23 46 0.0 0.0 0.00 0.00 0.00 50 1012.3
20260504235806 23 47 1.6 1.6 0.00 0.00 0.00 55 1012.4
20260504235304 23 46 0.0 0.0 0.00 0.00 0.00 49 1012.4
20260504234800 23 46 0.0 0.0 0.00 0.00 0.00 49 1012.3
20260504234257 23 46 0.0 1.6 0.00 0.00 0.00 48 1012.5
20260504233753 24 46 0.0 0.0 0.00 0.00 0.00 47 1012.6
20260504233249 24 47 0.0 1.6 0.00 0.00 0.00 46 1012.6
20260504232746 24 47 0.0 0.0 0.00 0.00 0.00 45 1012.5
20260504232243 25 40 1.6 1.6 0.00 0.00 0.00 45 1012.5
20260504231740 25 39 0.0 1.6 0.00 0.00 0.00 45 1012.5
20260504231237 25 40 0.0 1.6 0.00 0.00 0.00 44 1012.6
20260504230732 25 45 0.0 1.6 0.00 0.00 0.00 45 1012.4
20260504230231 25 32 0.0 1.6 0.00 0.00 0.00 45 1012.6
20260504225730 25 58 3.2 3.2 0.00 0.00 0.00 43 1012.4
20260504225225 25 55 1.6 3.2 0.00 0.00 0.00 43 1012.6
20260504224723 25 47 1.6 3.2 0.00 0.00 0.00 44 1012.6
20260504224220 25 32 1.6 1.6 0.00 0.00 0.00 45 1012.8
20260504223716 25 87 3.2 4.8 0.00 0.00 0.00 45 1012.8
20260504223212 25 60 1.6 3.2 0.00 0.00 0.00 41 1012.8
20260504222709 25 28 0.0 1.6 0.00 0.00 0.00 44 1013.0
20260504222206 25 25 0.0 0.0 0.00 0.00 0.00 44 1012.7
20260504221703 25 177 0.0 3.2 0.00 0.00 0.00 44 1012.8
20260504221200 25 33 0.0 1.6 0.00 0.00 0.00 46 1012.9
20260504220656 25 94 3.2 3.2 0.00 0.00 0.00 44 1013.0
20260504220154 26 17 0.0 1.6 0.00 0.00 0.00 44 1012.9
20260504215650 26 3 0.0 3.2 0.00 0.00 0.00 43 1013.0
20260504215148 26 46 3.2 3.2 0.00 0.00 0.00 46 1013.1
20260504214643 26 14 0.0 1.6 0.00 0.00 0.00 47 1013.0
20260504214140 25 63 1.6 3.2 0.00 0.00 0.00 48 1012.8
20260504213637 25 53 1.6 1.6 0.00 0.00 0.00 45 1013.0
20260504213133 25 42 0.0 1.6 0.00 0.00 0.00 44 1013.1
20260504212630 26 29 0.0 1.6 0.00 0.00 0.00 49 1013.0
20260504212127 26 25 0.0 1.6 0.00 0.00 0.00 47 1013.2
20260504211625 25 25 0.0 0.0 0.00 0.00 0.00 46 1013.2
20260504211120 25 23 0.0 0.0 0.00 0.00 0.00 47 1013.0
20260504210619 26 346 0.0 0.0 0.00 0.00 0.00 45 1013.1
20260504210114 26 330 0.0 0.0 0.00 0.00 0.00 44 1013.2
20260504205612 25 233 1.6 9.7 0.00 0.00 0.00 44 1013.3
20260504205110 26 114 3.2 4.8 0.00 0.00 0.00 44 1013.3
20260504204608 26 190 6.4 6.4 0.00 0.00 0.00 42 1013.3
20260504204107 25 107 3.2 4.8 0.00 0.00 0.00 41 1013.1
20260504203605 25 79 3.2 4.8 0.00 0.00 0.00 47 1013.2
20260504203102 25 64 3.2 4.8 0.00 0.00 0.00 46 1013.4
20260504202557 25 55 1.6 4.8 0.00 0.00 0.00 43 1013.4
20260504202054 26 48 0.0 0.0 0.00 0.00 0.00 42 1013.7
20260504201551 25 59 3.2 4.8 0.00 0.00 0.00 43 1013.7
20260504201049 25 173 4.8 4.8 0.00 0.00 0.00 42 1013.8
20260504200545 25 158 4.8 4.8 0.00 0.00 0.00 42 1013.9
20260504200042 26 50 1.6 1.6 0.00 0.00 0.00 47 1014.0
20260504195538 26 58 1.6 3.2 0.00 0.00 0.00 47 1014.0
20260504195035 25 59 1.6 4.8 0.00 0.00 0.00 46 1013.9
20260504194531 25 26 0.0 1.6 0.00 0.00 0.00 44 1014.2
20260504194026 25 28 0.0 1.6 0.00 0.00 0.00 44 1014.1
20260504193523 25 27 0.0 0.0 0.00 0.00 0.00 49 1014.2
20260504193022 25 26 0.0 1.6 0.00 0.00 0.00 51 1014.4
20260504192520 25 48 1.6 1.6 0.00 0.00 0.00 46 1014.3
20260504192018 25 88 4.8 4.8 0.00 0.00 0.00 44 1014.3
20260504191516 25 52 1.6 4.8 0.00 0.00 0.00 47 1014.6
20260504191012 25 36 1.6 3.2 0.00 0.00 0.00 45 1014.6
20260504190508 25 51 0.0 1.6 0.00 0.00 0.00 48 1014.8
20260504190004 25 5 1.6 3.2 0.00 0.00 0.00 45 1014.7
20260504185501 25 37 0.0 0.0 0.00 0.00 0.00 47 1014.6
20260504184957 25 20 0.0 1.6 0.00 0.00 0.00 47 1015.0
20260504184453 24 179 3.2 4.8 0.00 0.00 0.00 47 1015.1
20260504183949 24 83 3.2 4.8 0.00 0.00 0.00 48 1015.4
20260504183446 24 178 4.8 4.8 0.00 0.00 0.00 47 1015.3
20260504182944 24 118 3.2 6.4 0.00 0.00 0.00 47 1015.4
20260504182440 24 180 6.4 6.4 0.00 0.00 0.00 51 1015.3
20260504181938 24 171 6.4 9.7 0.00 0.00 0.00 47 1015.3
20260504181435 24 164 4.8 4.8 0.00 0.00 0.00 50 1015.4
20260504180934 24 35 1.6 4.8 0.00 0.00 0.00 50 1015.7
20260504180432 25 141 4.8 4.8 0.00 0.00 0.00 49 1015.7
20260504175930 24 67 3.2 4.8 0.00 0.00 0.00 52 1015.5
20260504175427 24 121 3.2 4.8 0.00 0.00 0.00 52 1015.7
20260504174925 24 46 1.6 1.6 0.00 0.00 0.00 48 1015.7
20260504174422 24 65 3.2 4.8 0.00 0.00 0.00 49 1015.9
20260504173919 24 29 1.6 3.2 0.00 0.00 0.00 47 1016.0
20260504173416 25 87 3.2 6.4 0.00 0.00 0.00 50 1015.9
20260504172913 24 85 3.2 3.2 0.00 0.00 0.00 48 1016.0
20260504172409 24 59 3.2 3.2 0.00 0.00 0.00 49 1016.3
20260504171905 24 334 1.6 4.8 0.00 0.00 0.00 51 1016.3
20260504171403 25 86 3.2 6.4 0.00 0.00 0.00 50 1016.4
20260504170859 25 54 3.2 3.2 0.00 0.00 0.00 50 1016.5
20260504170356 25 71 1.6 3.2 0.00 0.00 0.00 45 1016.6
20260504160315 23 42 0.0 3.2 0.00 0.00 0.00 54 1017.5
20260504150739 21 67 1.6 4.8 0.00 0.00 0.00 62 1017.3
20260504150236 20 63 0.0 1.6 0.00 0.00 0.00 61 1017.5
20260504141206 17 65 1.6 3.2 0.00 0.00 0.00 73 1017.7
20260504140702 17 75 3.2 4.8 0.00 0.00 0.00 74 1018.1
20260504140158 17 60 1.6 1.6 0.00 0.00 0.00 77 1017.9
20260504130626 13 40 0.0 0.0 0.00 0.00 0.00 96 1018.0
20260504130123 13 40 0.0 0.0 0.00 0.00 0.00 97 1018.0
20260504110514 8 42 0.0 0.0 0.00 0.00 0.00 99 1017.4
20260504100436 9 43 0.0 0.0 0.00 0.00 0.00 99 1017.0
20260504081829 10 44 0.0 0.0 0.00 0.00 0.00 97 1017.3
20260504081326 10 44 0.0 0.0 0.00 0.00 0.00 97 1017.3
20260504080822 10 45 0.0 0.0 0.00 0.00 0.00 97 1017.2
20260504080320 10 45 0.0 0.0 0.00 0.00 0.00 97 1017.3
20260504070246 10 45 0.0 0.0 0.00 0.00 0.00 94 1017.2
20260504060207 11 45 0.0 0.0 0.00 0.00 0.00 91 1017.7
20260504050635 11 45 0.0 0.0 0.00 0.00 0.00 93 1017.9
20260504050132 11 45 0.0 1.6 0.00 0.00 0.00 93 1018.0
20260504045629 11 45 0.0 0.0 0.00 0.00 0.00 93 1018.0
20260504045129 11 45 0.0 0.0 0.00 0.00 0.00 94 1018.1
20260504044627 11 45 0.0 0.0 0.00 0.00 0.00 94 1018.1
20260504044124 11 45 0.0 0.0 0.00 0.00 0.00 94 1018.0
20260504043621 11 45 0.0 0.0 0.00 0.00 0.00 94 1018.1
20260504043118 11 45 0.0 0.0 0.00 0.00 0.00 94 1018.1
20260504042615 11 45 0.0 0.0 0.00 0.00 0.00 94 1018.1
20260504042112 11 45 0.0 0.0 0.00 0.00 0.00 94 1018.3
20260504041607 11 45 0.0 1.6 0.00 0.00 0.00 93 1018.1
20260504041104 11 45 0.0 0.0 0.00 0.00 0.00 94 1018.2
20260504040602 11 45 0.0 0.0 0.00 0.00 0.00 94 1018.2
20260504040058 11 45 0.0 0.0 0.00 0.00 0.00 93 1018.4
20260504035555 11 45 0.0 1.6 0.00 0.00 0.00 93 1018.5
20260504035051 12 45 0.0 0.0 0.00 0.00 0.00 92 1018.4
20260504034549 12 45 0.0 0.0 0.00 0.00 0.00 92 1018.5
20260504034046 12 45 0.0 0.0 0.00 0.00 0.00 91 1018.4
20260504033544 12 45 0.0 0.0 0.00 0.00 0.00 91 1018.3
20260504033041 12 45 0.0 0.0 0.00 0.00 0.00 91 1018.5
20260504032538 12 45 0.0 0.0 0.00 0.00 0.00 91 1018.4
20260504032034 12 45 0.0 0.0 0.00 0.00 0.00 90 1018.3
20260504031531 12 45 0.0 0.0 0.00 0.00 0.00 89 1018.3
20260504031027 12 45 0.0 0.0 0.00 0.00 0.00 89 1018.2
20260504030525 12 45 0.0 0.0 0.00 0.00 0.00 89 1018.1
20260504030021 12 45 0.0 0.0 0.00 0.00 0.00 88 1018.2
20260504025518 12 45 0.0 0.0 0.00 0.00 0.00 88 1018.0
20260504025015 12 45 0.0 1.6 0.00 0.00 0.00 87 1018.2
20260504024512 12 45 0.0 0.0 0.00 0.00 0.00 86 1017.9
20260504024009 12 45 0.0 0.0 0.00 0.00 0.00 85 1018.1
20260504023506 12 45 0.0 0.0 0.00 0.00 0.00 85 1018.1
20260504023001 12 45 0.0 0.0 0.00 0.00 0.00 84 1018.1
20260504022457 12 45 0.0 0.0 0.00 0.00 0.00 83 1017.9
20260504021954 13 45 0.0 0.0 0.00 0.00 0.00 83 1017.8
20260504021452 13 45 0.0 0.0 0.00 0.00 0.00 82 1017.8
20260504020949 13 45 0.0 0.0 0.00 0.00 0.00 82 1017.7
20260504020445 13 45 0.0 0.0 0.00 0.00 0.00 81 1017.7
20260504015942 13 45 0.0 0.0 0.00 0.00 0.00 80 1017.8
20260504015438 13 45 0.0 1.6 0.00 0.00 0.00 79 1017.7
20260504014934 13 45 0.0 1.6 0.00 0.00 0.00 78 1017.7
20260504014430 13 45 0.0 0.0 0.00 0.00 0.00 77 1017.6
20260504013927 13 45 0.0 0.0 0.00 0.00 0.00 78 1017.7
20260504013426 13 45 0.0 0.0 0.00 0.00 0.00 77 1017.6
20260504012927 13 45 0.0 0.0 0.00 0.00 0.00 77 1017.5
20260504012425 13 45 0.0 0.0 0.00 0.00 0.00 76 1017.6